Year,Month,Day,Hour,Minute,Value (Times are PST for temperature in C)
2016,02,16,00,00,8.60
2016,02,16,00,01,8.50
2016,02,16,00,02,8.50
2016,02,16,00,03,8.50
2016,02,16,00,04,8.40
2016,02,16,00,05,8.40
2016,02,16,00,06,8.40
2016,02,16,00,07,8.40
2016,02,16,00,08,8.40
2016,02,16,00,09,8.40
2016,02,16,00,10,8.40
2016,02,16,00,11,8.40
2016,02,16,00,12,8.40
2016,02,16,00,13,8.30
2016,02,16,00,14,8.40
2016,02,16,00,15,8.50
2016,02,16,00,16,8.50
2016,02,16,00,17,8.40
2016,02,16,00,18,8.40
2016,02,16,00,19,8.30
2016,02,16,00,20,8.30
2016,02,16,00,21,8.20
2016,02,16,00,22,8.20
2016,02,16,00,23,8.10
2016,02,16,00,24,8.10
2016,02,16,00,25,8.00
2016,02,16,00,26,7.90
2016,02,16,00,27,7.80
2016,02,16,00,28,7.80
2016,02,16,00,29,7.80
2016,02,16,00,30,7.80
2016,02,16,00,31,7.80
2016,02,16,00,32,7.80
2016,02,16,00,33,7.80
2016,02,16,00,34,7.80
2016,02,16,00,35,7.80
2016,02,16,00,36,7.80
2016,02,16,00,37,7.80
2016,02,16,00,38,7.80
2016,02,16,00,39,7.80
2016,02,16,00,40,7.80
2016,02,16,00,41,7.80
2016,02,16,00,42,7.80
2016,02,16,00,43,7.80
2016,02,16,00,44,7.80
2016,02,16,00,45,7.80
2016,02,16,00,46,7.80
2016,02,16,00,47,7.80
2016,02,16,00,48,7.80
2016,02,16,00,49,7.80
2016,02,16,00,50,7.70
2016,02,16,00,51,7.70
2016,02,16,00,52,7.80
2016,02,16,00,53,7.80
2016,02,16,00,54,7.80
2016,02,16,00,55,7.70
2016,02,16,00,56,7.70
2016,02,16,00,57,7.60
2016,02,16,00,58,7.60
2016,02,16,00,59,7.60
2016,02,16,01,00,7.60
2016,02,16,01,01,7.60
2016,02,16,01,02,7.60
2016,02,16,01,03,7.60
2016,02,16,01,04,7.50
2016,02,16,01,05,7.50
2016,02,16,01,06,7.40
2016,02,16,01,07,7.40
2016,02,16,01,08,7.30
2016,02,16,01,09,7.30
2016,02,16,01,10,7.50
2016,02,16,01,11,7.60
2016,02,16,01,12,7.60
2016,02,16,01,13,7.50
2016,02,16,01,14,7.60
2016,02,16,01,15,7.70
2016,02,16,01,16,7.90
2016,02,16,01,17,8.00
2016,02,16,01,18,7.90
2016,02,16,01,19,7.80
2016,02,16,01,20,7.80
2016,02,16,01,21,7.80
2016,02,16,01,22,7.80
2016,02,16,01,23,7.70
2016,02,16,01,24,7.60
2016,02,16,01,25,7.60
2016,02,16,01,26,7.60
2016,02,16,01,27,7.50
2016,02,16,01,28,7.50
2016,02,16,01,29,7.50
2016,02,16,01,30,7.50
2016,02,16,01,31,7.70
2016,02,16,01,32,7.70
2016,02,16,01,33,7.80
2016,02,16,01,34,7.70
2016,02,16,01,35,7.70
2016,02,16,01,36,7.60
2016,02,16,01,37,7.60
2016,02,16,01,38,7.50
2016,02,16,01,39,7.40
2016,02,16,01,40,7.30
2016,02,16,01,41,7.30
2016,02,16,01,42,7.30
2016,02,16,01,43,7.20
2016,02,16,01,44,7.20
2016,02,16,01,45,7.10
2016,02,16,01,46,7.10
2016,02,16,01,47,7.00
2016,02,16,01,48,6.90
2016,02,16,01,49,6.90
2016,02,16,01,50,6.90
2016,02,16,01,51,7.00
2016,02,16,01,52,7.00
2016,02,16,01,53,7.00
2016,02,16,01,54,7.00
2016,02,16,01,55,7.00
2016,02,16,01,56,7.00
2016,02,16,01,57,7.00
2016,02,16,01,58,6.90
2016,02,16,01,59,6.90
2016,02,16,02,00,6.90
2016,02,16,02,01,6.90
2016,02,16,02,02,6.90
2016,02,16,02,03,7.00
2016,02,16,02,04,7.00
2016,02,16,02,05,6.90
2016,02,16,02,06,6.90
2016,02,16,02,07,6.90
2016,02,16,02,08,6.90
2016,02,16,02,09,6.90
2016,02,16,02,10,6.90
2016,02,16,02,11,6.80
2016,02,16,02,12,6.80
2016,02,16,02,13,6.80
2016,02,16,02,14,6.80
2016,02,16,02,15,6.70
2016,02,16,02,16,6.60
2016,02,16,02,17,6.60
2016,02,16,02,18,6.60
2016,02,16,02,19,6.60
2016,02,16,02,20,6.60
2016,02,16,02,21,6.60
2016,02,16,02,22,6.60
2016,02,16,02,23,6.60
2016,02,16,02,24,6.60
2016,02,16,02,25,6.60
2016,02,16,02,26,6.50
2016,02,16,02,27,6.50
2016,02,16,02,28,6.40
2016,02,16,02,29,6.40
2016,02,16,02,30,6.30
2016,02,16,02,31,6.30
2016,02,16,02,32,6.30
2016,02,16,02,33,6.30
2016,02,16,02,34,6.30
2016,02,16,02,35,6.30
2016,02,16,02,36,6.30
2016,02,16,02,37,6.30
2016,02,16,02,38,6.30
2016,02,16,02,39,6.40
2016,02,16,02,40,6.40
2016,02,16,02,41,6.40
2016,02,16,02,42,6.40
2016,02,16,02,43,6.40
2016,02,16,02,44,6.40
2016,02,16,02,45,6.40
2016,02,16,02,46,6.40
2016,02,16,02,47,6.40
2016,02,16,02,48,6.50
2016,02,16,02,49,6.50
2016,02,16,02,50,6.50
2016,02,16,02,51,6.50
2016,02,16,02,52,6.50
2016,02,16,02,53,6.40
2016,02,16,02,54,6.40
2016,02,16,02,55,6.30
2016,02,16,02,56,6.40
2016,02,16,02,57,6.40
2016,02,16,02,58,6.50
2016,02,16,02,59,6.50
2016,02,16,03,00,6.50
2016,02,16,03,01,6.50
2016,02,16,03,02,6.50
2016,02,16,03,03,6.60
2016,02,16,03,04,6.60
2016,02,16,03,05,6.60
2016,02,16,03,06,6.60
2016,02,16,03,07,6.70
2016,02,16,03,08,6.80
2016,02,16,03,09,6.80
2016,02,16,03,10,6.90
2016,02,16,03,11,6.90
2016,02,16,03,12,6.80
2016,02,16,03,13,6.80
2016,02,16,03,14,6.80
2016,02,16,03,15,6.70
2016,02,16,03,16,6.70
2016,02,16,03,17,6.60
2016,02,16,03,18,6.60
2016,02,16,03,19,6.60
2016,02,16,03,20,6.60
2016,02,16,03,21,6.70
2016,02,16,03,22,6.80
2016,02,16,03,23,6.70
2016,02,16,03,24,6.70
2016,02,16,03,25,6.60
2016,02,16,03,26,6.60
2016,02,16,03,27,6.60
2016,02,16,03,28,6.70
2016,02,16,03,29,6.70
2016,02,16,03,30,6.80
2016,02,16,03,31,6.90
2016,02,16,03,32,7.00
2016,02,16,03,33,7.00
2016,02,16,03,34,7.00
2016,02,16,03,35,6.90
2016,02,16,03,36,7.10
2016,02,16,03,37,7.20
2016,02,16,03,38,7.20
2016,02,16,03,39,7.10
2016,02,16,03,40,7.10
2016,02,16,03,41,7.20
2016,02,16,03,42,7.20
2016,02,16,03,43,7.20
2016,02,16,03,44,7.20
2016,02,16,03,45,7.20
2016,02,16,03,46,7.20
2016,02,16,03,47,7.10
2016,02,16,03,48,7.10
2016,02,16,03,49,7.00
2016,02,16,03,50,6.90
2016,02,16,03,51,6.90
2016,02,16,03,52,6.80
2016,02,16,03,53,6.80
2016,02,16,03,54,6.70
2016,02,16,03,55,6.70
2016,02,16,03,56,6.70
2016,02,16,03,57,6.70
2016,02,16,03,58,6.70
2016,02,16,03,59,6.60
2016,02,16,04,00,6.60
2016,02,16,04,01,6.60
2016,02,16,04,02,6.70
2016,02,16,04,03,6.60
2016,02,16,04,04,6.60
2016,02,16,04,05,6.60
2016,02,16,04,06,6.60
2016,02,16,04,07,6.60
2016,02,16,04,08,6.60
2016,02,16,04,09,6.60
2016,02,16,04,10,6.70
2016,02,16,04,11,6.70
2016,02,16,04,12,6.70
2016,02,16,04,13,6.70
2016,02,16,04,14,6.60
2016,02,16,04,15,6.60
2016,02,16,04,16,6.50
2016,02,16,04,17,6.40
2016,02,16,04,18,6.40
2016,02,16,04,19,6.40
2016,02,16,04,20,6.40
2016,02,16,04,21,6.40
2016,02,16,04,22,6.40
2016,02,16,04,23,6.30
2016,02,16,04,24,6.40
2016,02,16,04,25,6.40
2016,02,16,04,26,6.30
2016,02,16,04,27,6.30
2016,02,16,04,28,6.30
2016,02,16,04,29,6.30
2016,02,16,04,30,6.30
2016,02,16,04,31,6.30
2016,02,16,04,32,6.30
2016,02,16,04,33,6.30
2016,02,16,04,34,6.20
2016,02,16,04,35,6.20
2016,02,16,04,36,6.10
2016,02,16,04,37,6.10
2016,02,16,04,38,6.10
2016,02,16,04,39,6.10
2016,02,16,04,40,6.20
2016,02,16,04,41,6.20
2016,02,16,04,42,6.20
2016,02,16,04,43,6.20
2016,02,16,04,44,6.20
2016,02,16,04,45,6.10
2016,02,16,04,46,6.10
2016,02,16,04,47,6.10
2016,02,16,04,48,6.10
2016,02,16,04,49,6.10
2016,02,16,04,50,6.00
2016,02,16,04,51,6.00
2016,02,16,04,52,5.90
2016,02,16,04,53,5.90
2016,02,16,04,54,5.90
2016,02,16,04,55,5.90
2016,02,16,04,56,5.90
2016,02,16,04,57,5.90
2016,02,16,04,58,5.90
2016,02,16,04,59,5.90
2016,02,16,05,00,5.90
2016,02,16,05,01,5.90
2016,02,16,05,02,6.00
2016,02,16,05,03,6.00
2016,02,16,05,04,6.10
2016,02,16,05,05,6.10
2016,02,16,05,06,6.00
2016,02,16,05,07,6.00
2016,02,16,05,08,5.90
2016,02,16,05,09,5.90
2016,02,16,05,10,5.80
2016,02,16,05,11,5.80
2016,02,16,05,12,5.90
2016,02,16,05,13,5.90
2016,02,16,05,14,5.80
2016,02,16,05,15,5.80
2016,02,16,05,16,5.70
2016,02,16,05,17,5.60
2016,02,16,05,18,5.60
2016,02,16,05,19,5.50
2016,02,16,05,20,5.50
2016,02,16,05,21,5.40
2016,02,16,05,22,5.40
2016,02,16,05,23,5.40
2016,02,16,05,24,5.40
2016,02,16,05,25,5.40
2016,02,16,05,26,5.40
2016,02,16,05,27,5.40
2016,02,16,05,28,5.40
2016,02,16,05,29,5.40
2016,02,16,05,30,5.40
2016,02,16,05,31,5.40
2016,02,16,05,32,5.40
2016,02,16,05,33,5.40
2016,02,16,05,34,5.40
2016,02,16,05,35,5.30
2016,02,16,05,36,5.30
2016,02,16,05,37,5.20
2016,02,16,05,38,5.20
2016,02,16,05,39,5.20
2016,02,16,05,40,5.20
2016,02,16,05,41,5.20
2016,02,16,05,42,5.20
2016,02,16,05,43,5.20
2016,02,16,05,44,5.30
2016,02,16,05,45,5.30
2016,02,16,05,46,5.30
2016,02,16,05,47,5.30
2016,02,16,05,48,5.30
2016,02,16,05,49,5.30
2016,02,16,05,50,5.30
2016,02,16,05,51,5.30
2016,02,16,05,52,5.20
2016,02,16,05,53,5.20
2016,02,16,05,54,5.20
2016,02,16,05,55,5.10
2016,02,16,05,56,5.10
2016,02,16,05,57,5.10
2016,02,16,05,58,5.10
2016,02,16,05,59,5.10
2016,02,16,06,00,5.10
2016,02,16,06,01,5.20
2016,02,16,06,02,5.20
2016,02,16,06,03,5.20
2016,02,16,06,04,5.10
2016,02,16,06,05,5.10
2016,02,16,06,06,5.10
2016,02,16,06,07,5.10
2016,02,16,06,08,5.10
2016,02,16,06,09,5.10
2016,02,16,06,10,5.10
2016,02,16,06,11,5.10
2016,02,16,06,12,5.00
2016,02,16,06,13,5.00
2016,02,16,06,14,4.90
2016,02,16,06,15,4.90
2016,02,16,06,16,4.90
2016,02,16,06,17,4.90
2016,02,16,06,18,4.90
2016,02,16,06,19,4.90
2016,02,16,06,20,4.90
2016,02,16,06,21,5.00
2016,02,16,06,22,5.00
2016,02,16,06,23,5.00
2016,02,16,06,24,5.00
2016,02,16,06,25,5.10
2016,02,16,06,26,5.00
2016,02,16,06,27,5.00
2016,02,16,06,28,5.00
2016,02,16,06,29,5.00
2016,02,16,06,30,5.00
2016,02,16,06,31,5.00
2016,02,16,06,32,5.10
2016,02,16,06,33,5.10
2016,02,16,06,34,5.10
2016,02,16,06,35,5.10
2016,02,16,06,36,5.10
2016,02,16,06,37,5.00
2016,02,16,06,38,5.00
2016,02,16,06,39,4.90
2016,02,16,06,40,4.90
2016,02,16,06,41,4.80
2016,02,16,06,42,4.80
2016,02,16,06,43,4.90
2016,02,16,06,44,4.90
2016,02,16,06,45,5.00
2016,02,16,06,46,4.90
2016,02,16,06,47,4.80
2016,02,16,06,48,4.80
2016,02,16,06,49,4.70
2016,02,16,06,50,4.70
2016,02,16,06,51,4.80
2016,02,16,06,52,4.80
2016,02,16,06,53,4.80
2016,02,16,06,54,4.80
2016,02,16,06,55,4.80
2016,02,16,06,56,4.80
2016,02,16,06,57,4.80
2016,02,16,06,58,4.80
2016,02,16,06,59,4.80
2016,02,16,07,00,4.80
2016,02,16,07,01,4.80
2016,02,16,07,02,4.80
2016,02,16,07,03,4.90
2016,02,16,07,04,4.90
2016,02,16,07,05,4.90
2016,02,16,07,06,4.80
2016,02,16,07,07,4.80
2016,02,16,07,08,4.70
2016,02,16,07,09,4.70
2016,02,16,07,10,4.60
2016,02,16,07,11,4.50
2016,02,16,07,12,4.50
2016,02,16,07,13,4.50
2016,02,16,07,14,4.50
2016,02,16,07,15,4.40
2016,02,16,07,16,4.40
2016,02,16,07,17,4.40
2016,02,16,07,18,4.40
2016,02,16,07,19,4.50
2016,02,16,07,20,4.50
2016,02,16,07,21,4.60
2016,02,16,07,22,4.60
2016,02,16,07,23,4.50
2016,02,16,07,24,4.40
2016,02,16,07,25,4.50
2016,02,16,07,26,4.60
2016,02,16,07,27,4.70
2016,02,16,07,28,4.70
2016,02,16,07,29,4.80
2016,02,16,07,30,4.70
2016,02,16,07,31,4.60
2016,02,16,07,32,4.60
2016,02,16,07,33,4.60
2016,02,16,07,34,4.50
2016,02,16,07,35,4.50
2016,02,16,07,36,4.50
2016,02,16,07,37,4.50
2016,02,16,07,38,4.50
2016,02,16,07,39,4.50
2016,02,16,07,40,4.70
2016,02,16,07,41,4.70
2016,02,16,07,42,4.70
2016,02,16,07,43,4.70
2016,02,16,07,44,4.60
2016,02,16,07,45,4.60
2016,02,16,07,46,4.50
2016,02,16,07,47,4.50
2016,02,16,07,48,4.40
2016,02,16,07,49,4.40
2016,02,16,07,50,4.40
2016,02,16,07,51,4.50
2016,02,16,07,52,4.60
2016,02,16,07,53,4.60
2016,02,16,07,54,4.70
2016,02,16,07,55,4.70
2016,02,16,07,56,4.80
2016,02,16,07,57,4.80
2016,02,16,07,58,4.80
2016,02,16,07,59,4.80
2016,02,16,08,00,4.70
2016,02,16,08,01,4.70
2016,02,16,08,02,4.70
2016,02,16,08,03,4.70
2016,02,16,08,04,4.70
2016,02,16,08,05,4.60
2016,02,16,08,06,4.60
2016,02,16,08,07,4.50
2016,02,16,08,08,4.60
2016,02,16,08,09,4.60
2016,02,16,08,10,4.70
2016,02,16,08,11,4.70
2016,02,16,08,12,4.80
2016,02,16,08,13,4.80
2016,02,16,08,14,4.90
2016,02,16,08,15,4.90
2016,02,16,08,16,4.90
2016,02,16,08,17,4.90
2016,02,16,08,18,4.90
2016,02,16,08,19,4.90
2016,02,16,08,20,5.00
2016,02,16,08,21,5.00
2016,02,16,08,22,5.00
2016,02,16,08,23,5.00
2016,02,16,08,24,5.00
2016,02,16,08,25,5.00
2016,02,16,08,26,5.10
2016,02,16,08,27,5.10
2016,02,16,08,28,5.10
2016,02,16,08,29,5.10
2016,02,16,08,30,5.20
2016,02,16,08,31,5.20
2016,02,16,08,32,5.20
2016,02,16,08,33,5.20
2016,02,16,08,34,5.20
2016,02,16,08,35,5.20
2016,02,16,08,36,5.20
2016,02,16,08,37,5.20
2016,02,16,08,38,5.20
2016,02,16,08,39,5.20
2016,02,16,08,40,5.20
2016,02,16,08,41,5.30
2016,02,16,08,42,5.30
2016,02,16,08,43,5.30
2016,02,16,08,44,5.30
2016,02,16,08,45,5.40
2016,02,16,08,46,5.50
2016,02,16,08,47,5.50
2016,02,16,08,48,5.60
2016,02,16,08,49,5.70
2016,02,16,08,50,5.80
2016,02,16,08,51,5.80
2016,02,16,08,52,5.80
2016,02,16,08,53,5.80
2016,02,16,08,54,5.90
2016,02,16,08,55,5.90
2016,02,16,08,56,5.90
2016,02,16,08,57,5.80
2016,02,16,08,58,5.80
2016,02,16,08,59,5.70
2016,02,16,09,00,5.70
2016,02,16,09,01,5.70
2016,02,16,09,02,5.60
2016,02,16,09,03,5.60
2016,02,16,09,04,5.70
2016,02,16,09,05,5.80
2016,02,16,09,06,5.80
2016,02,16,09,07,5.80
2016,02,16,09,08,5.90
2016,02,16,09,09,5.90
2016,02,16,09,10,6.00
2016,02,16,09,11,6.10
2016,02,16,09,12,6.20
2016,02,16,09,13,6.30
2016,02,16,09,14,6.40
2016,02,16,09,15,6.50
2016,02,16,09,16,6.60
2016,02,16,09,17,6.60
2016,02,16,09,18,6.70
2016,02,16,09,19,6.80
2016,02,16,09,20,6.90
2016,02,16,09,21,6.90
2016,02,16,09,22,7.00
2016,02,16,09,23,7.00
2016,02,16,09,24,7.00
2016,02,16,09,25,7.10
2016,02,16,09,26,7.00
2016,02,16,09,27,7.10
2016,02,16,09,28,7.10
2016,02,16,09,29,7.10
2016,02,16,09,30,7.20
2016,02,16,09,31,7.20
2016,02,16,09,32,7.20
2016,02,16,09,33,7.20
2016,02,16,09,34,7.10
2016,02,16,09,35,7.00
2016,02,16,09,36,6.90
2016,02,16,09,37,6.90
2016,02,16,09,38,6.80
2016,02,16,09,39,6.80
2016,02,16,09,40,6.80
2016,02,16,09,41,6.80
2016,02,16,09,42,6.70
2016,02,16,09,43,6.70
2016,02,16,09,44,6.70
2016,02,16,09,45,6.60
2016,02,16,09,46,6.60
2016,02,16,09,47,6.60
2016,02,16,09,48,6.60
2016,02,16,09,49,6.60
2016,02,16,09,50,6.60
2016,02,16,09,51,6.50
2016,02,16,09,52,6.50
2016,02,16,09,53,6.50
2016,02,16,09,54,6.50
2016,02,16,09,55,6.50
2016,02,16,09,56,6.60
2016,02,16,09,57,6.60
2016,02,16,09,58,6.60
2016,02,16,09,59,6.70
2016,02,16,10,00,6.70
2016,02,16,10,01,6.80
2016,02,16,10,02,6.80
2016,02,16,10,03,6.80
2016,02,16,10,04,6.90
2016,02,16,10,05,6.90
2016,02,16,10,06,7.00
2016,02,16,10,07,7.00
2016,02,16,10,08,7.10
2016,02,16,10,09,7.10
2016,02,16,10,10,7.20
2016,02,16,10,11,7.30
2016,02,16,10,12,7.30
2016,02,16,10,13,7.40
2016,02,16,10,14,7.50
2016,02,16,10,15,7.50
2016,02,16,10,16,7.60
2016,02,16,10,17,7.70
2016,02,16,10,18,7.70
2016,02,16,10,19,7.80
2016,02,16,10,20,7.80
2016,02,16,10,21,7.90
2016,02,16,10,22,8.00
2016,02,16,10,23,8.10
2016,02,16,10,24,8.10
2016,02,16,10,25,8.20
2016,02,16,10,26,8.20
2016,02,16,10,27,8.20
2016,02,16,10,28,8.30
2016,02,16,10,29,8.30
2016,02,16,10,30,8.30
2016,02,16,10,31,8.30
2016,02,16,10,32,8.40
2016,02,16,10,33,8.40
2016,02,16,10,34,8.40
2016,02,16,10,35,8.50
2016,02,16,10,36,8.60
2016,02,16,10,37,8.70
2016,02,16,10,38,8.80
2016,02,16,10,39,8.90
2016,02,16,10,40,9.00
2016,02,16,10,41,9.10
2016,02,16,10,42,9.10
2016,02,16,10,43,9.20
2016,02,16,10,44,9.20
2016,02,16,10,45,9.30
2016,02,16,10,46,9.40
2016,02,16,10,47,9.40
2016,02,16,10,48,9.40
2016,02,16,10,49,9.40
2016,02,16,10,50,9.30
2016,02,16,10,51,9.30
2016,02,16,10,52,9.20
2016,02,16,10,53,9.10
2016,02,16,10,54,9.00
2016,02,16,10,55,9.00
2016,02,16,10,56,8.90
2016,02,16,10,57,8.90
2016,02,16,10,58,8.90
2016,02,16,10,59,8.80
2016,02,16,11,00,8.80
2016,02,16,11,01,8.80
2016,02,16,11,02,8.80
2016,02,16,11,03,8.90
2016,02,16,11,04,8.90
2016,02,16,11,05,9.00
2016,02,16,11,06,8.90
2016,02,16,11,07,8.90
2016,02,16,11,08,8.90
2016,02,16,11,09,9.00
2016,02,16,11,10,9.00
2016,02,16,11,11,9.00
2016,02,16,11,12,9.10
2016,02,16,11,13,9.20
2016,02,16,11,14,9.20
2016,02,16,11,15,9.30
2016,02,16,11,16,9.30
2016,02,16,11,17,9.30
2016,02,16,11,18,9.30
2016,02,16,11,19,9.30
2016,02,16,11,20,9.40
2016,02,16,11,21,9.50
2016,02,16,11,22,9.50
2016,02,16,11,23,9.60
2016,02,16,11,24,9.70
2016,02,16,11,25,9.70
2016,02,16,11,26,9.80
2016,02,16,11,27,9.80
2016,02,16,11,28,9.80
2016,02,16,11,29,9.80
2016,02,16,11,30,9.70
2016,02,16,11,31,9.70
2016,02,16,11,32,9.70
2016,02,16,11,33,9.70
2016,02,16,11,34,9.60
2016,02,16,11,35,9.60
2016,02,16,11,36,9.60
2016,02,16,11,37,9.60
2016,02,16,11,38,9.60
2016,02,16,11,39,9.60
2016,02,16,11,40,9.70
2016,02,16,11,41,9.70
2016,02,16,11,42,9.80
2016,02,16,11,43,9.80
2016,02,16,11,44,9.90
2016,02,16,11,45,9.90
2016,02,16,11,46,9.90
2016,02,16,11,47,9.90
2016,02,16,11,48,9.90
2016,02,16,11,49,9.90
2016,02,16,11,50,9.90
2016,02,16,11,51,9.80
2016,02,16,11,52,9.80
2016,02,16,11,53,9.70
2016,02,16,11,54,9.70
2016,02,16,11,55,9.70
2016,02,16,11,56,9.70
2016,02,16,11,57,9.70
2016,02,16,11,58,9.60
2016,02,16,11,59,9.60
2016,02,16,12,00,9.60
2016,02,16,12,01,9.60
2016,02,16,12,02,9.60
2016,02,16,12,03,9.60
2016,02,16,12,04,9.70
2016,02,16,12,05,9.70
2016,02,16,12,06,9.70
2016,02,16,12,07,9.80
2016,02,16,12,08,9.80
2016,02,16,12,09,9.90
2016,02,16,12,10,10.00
2016,02,16,12,11,10.10
2016,02,16,12,12,10.10
2016,02,16,12,13,10.10
2016,02,16,12,14,10.20
2016,02,16,12,15,10.20
2016,02,16,12,16,10.30
2016,02,16,12,17,10.30
2016,02,16,12,18,10.30
2016,02,16,12,19,10.30
2016,02,16,12,20,10.30
2016,02,16,12,21,10.30
2016,02,16,12,22,10.30
2016,02,16,12,23,10.40
2016,02,16,12,24,10.50
2016,02,16,12,25,10.60
2016,02,16,12,26,10.60
2016,02,16,12,27,10.70
2016,02,16,12,28,10.70
2016,02,16,12,29,10.80
2016,02,16,12,30,10.90
2016,02,16,12,31,10.90
2016,02,16,12,32,11.00
2016,02,16,12,33,11.00
2016,02,16,12,34,11.00
2016,02,16,12,35,11.00
2016,02,16,12,36,11.00
2016,02,16,12,37,11.10
2016,02,16,12,38,11.10
2016,02,16,12,39,11.10
2016,02,16,12,40,11.10
2016,02,16,12,41,11.20
2016,02,16,12,42,11.20
2016,02,16,12,43,11.30
2016,02,16,12,44,11.30
2016,02,16,12,45,11.40
2016,02,16,12,46,11.40
2016,02,16,12,47,11.40
2016,02,16,12,48,11.50
2016,02,16,12,49,11.50
2016,02,16,12,50,11.40
2016,02,16,12,51,11.40
2016,02,16,12,52,11.30
2016,02,16,12,53,11.40
2016,02,16,12,54,11.40
2016,02,16,12,55,11.30
2016,02,16,12,56,11.20
2016,02,16,12,57,11.10
2016,02,16,12,58,11.10
2016,02,16,12,59,10.90
2016,02,16,13,00,10.80
2016,02,16,13,01,10.80
2016,02,16,13,02,10.90
2016,02,16,13,03,10.90
2016,02,16,13,04,11.00
2016,02,16,13,05,11.10
2016,02,16,13,06,11.20
2016,02,16,13,07,11.30
2016,02,16,13,08,11.40
2016,02,16,13,09,11.40
2016,02,16,13,10,11.40
2016,02,16,13,11,11.40
2016,02,16,13,12,11.40
2016,02,16,13,13,11.40
2016,02,16,13,14,11.40
2016,02,16,13,15,11.40
2016,02,16,13,16,11.40
2016,02,16,13,17,11.30
2016,02,16,13,18,11.30
2016,02,16,13,19,11.20
2016,02,16,13,20,11.20
2016,02,16,13,21,11.10
2016,02,16,13,22,11.00
2016,02,16,13,23,10.90
2016,02,16,13,24,10.80
2016,02,16,13,25,10.80
2016,02,16,13,26,10.80
2016,02,16,13,27,10.80
2016,02,16,13,28,10.80
2016,02,16,13,29,10.90
2016,02,16,13,30,11.00
2016,02,16,13,31,11.10
2016,02,16,13,32,11.30
2016,02,16,13,33,11.30
2016,02,16,13,34,11.40
2016,02,16,13,35,11.40
2016,02,16,13,36,11.40
2016,02,16,13,37,11.40
2016,02,16,13,38,11.30
2016,02,16,13,39,11.20
2016,02,16,13,40,11.10
2016,02,16,13,41,11.00
2016,02,16,13,42,10.90
2016,02,16,13,43,10.90
2016,02,16,13,44,10.90
2016,02,16,13,45,10.90
2016,02,16,13,46,10.80
2016,02,16,13,47,10.80
2016,02,16,13,48,10.70
2016,02,16,13,49,10.70
2016,02,16,13,50,10.70
2016,02,16,13,51,10.70
2016,02,16,13,52,10.70
2016,02,16,13,53,10.60
2016,02,16,13,54,10.60
2016,02,16,13,55,10.60
2016,02,16,13,56,10.70
2016,02,16,13,57,10.80
2016,02,16,13,58,11.00
2016,02,16,13,59,11.00
2016,02,16,14,00,11.00
2016,02,16,14,01,11.00
2016,02,16,14,02,11.00
2016,02,16,14,03,11.00
2016,02,16,14,04,11.20
2016,02,16,14,05,11.10
2016,02,16,14,06,11.00
2016,02,16,14,07,10.90
2016,02,16,14,08,10.90
2016,02,16,14,09,10.90
2016,02,16,14,10,10.90
2016,02,16,14,11,10.90
2016,02,16,14,12,11.00
2016,02,16,14,13,11.00
2016,02,16,14,14,11.00
2016,02,16,14,15,11.00
2016,02,16,14,16,11.00
2016,02,16,14,17,11.00
2016,02,16,14,18,11.10
2016,02,16,14,19,11.20
2016,02,16,14,20,11.30
2016,02,16,14,21,11.40
2016,02,16,14,22,11.20
2016,02,16,14,23,11.10
2016,02,16,14,24,11.10
2016,02,16,14,25,11.10
2016,02,16,14,26,11.10
2016,02,16,14,27,11.00
2016,02,16,14,28,10.90
2016,02,16,14,29,10.80
2016,02,16,14,30,10.70
2016,02,16,14,31,10.70
2016,02,16,14,32,10.60
2016,02,16,14,33,10.60
2016,02,16,14,34,10.50
2016,02,16,14,35,10.40
2016,02,16,14,36,10.40
2016,02,16,14,37,10.30
2016,02,16,14,38,10.30
2016,02,16,14,39,10.20
2016,02,16,14,40,10.10
2016,02,16,14,41,10.10
2016,02,16,14,42,10.00
2016,02,16,14,43,10.00
2016,02,16,14,44,9.90
2016,02,16,14,45,9.80
2016,02,16,14,46,9.70
2016,02,16,14,47,9.70
2016,02,16,14,48,9.70
2016,02,16,14,49,9.80
2016,02,16,14,50,9.90
2016,02,16,14,51,9.90
2016,02,16,14,52,9.90
2016,02,16,14,53,9.90
2016,02,16,14,54,9.90
2016,02,16,14,55,9.90
2016,02,16,14,56,9.90
2016,02,16,14,57,9.80
2016,02,16,14,58,9.90
2016,02,16,14,59,10.10
2016,02,16,15,00,10.20
2016,02,16,15,01,10.20
2016,02,16,15,02,10.20
2016,02,16,15,03,10.10
2016,02,16,15,04,10.00
2016,02,16,15,05,9.90
2016,02,16,15,06,9.80
2016,02,16,15,07,9.70
2016,02,16,15,08,9.70
2016,02,16,15,09,9.60
2016,02,16,15,10,9.50
2016,02,16,15,11,9.50
2016,02,16,15,12,9.50
2016,02,16,15,13,9.50
2016,02,16,15,14,9.50
2016,02,16,15,15,9.50
2016,02,16,15,16,9.50
2016,02,16,15,17,9.50
2016,02,16,15,18,9.40
2016,02,16,15,19,9.40
2016,02,16,15,20,9.40
2016,02,16,15,21,9.30
2016,02,16,15,22,9.30
2016,02,16,15,23,9.30
2016,02,16,15,24,9.30
2016,02,16,15,25,9.20
2016,02,16,15,26,9.20
2016,02,16,15,27,9.20
2016,02,16,15,28,9.20
2016,02,16,15,29,9.20
2016,02,16,15,30,9.20
2016,02,16,15,31,9.30
2016,02,16,15,32,9.30
2016,02,16,15,33,9.20
2016,02,16,15,34,9.30
2016,02,16,15,35,9.40
2016,02,16,15,36,9.40
2016,02,16,15,37,9.40
2016,02,16,15,38,9.40
2016,02,16,15,39,9.40
2016,02,16,15,40,9.30
2016,02,16,15,41,9.30
2016,02,16,15,42,9.30
2016,02,16,15,43,9.30
2016,02,16,15,44,9.30
2016,02,16,15,45,9.20
2016,02,16,15,46,9.20
2016,02,16,15,47,9.20
2016,02,16,15,48,9.20
2016,02,16,15,49,9.20
2016,02,16,15,50,9.20
2016,02,16,15,51,9.30
2016,02,16,15,52,9.30
2016,02,16,15,53,9.30
2016,02,16,15,54,9.30
2016,02,16,15,55,9.30
2016,02,16,15,56,9.30
2016,02,16,15,57,9.30
2016,02,16,15,58,9.30
2016,02,16,15,59,9.30
2016,02,16,16,00,9.30
2016,02,16,16,01,9.30
2016,02,16,16,02,9.30
2016,02,16,16,03,9.30
2016,02,16,16,04,9.30
2016,02,16,16,05,9.30
2016,02,16,16,06,9.30
2016,02,16,16,07,9.30
2016,02,16,16,08,9.30
2016,02,16,16,09,9.30
2016,02,16,16,10,9.30
2016,02,16,16,11,9.30
2016,02,16,16,12,9.30
2016,02,16,16,13,9.30
2016,02,16,16,14,9.30
2016,02,16,16,15,9.30
2016,02,16,16,16,9.30
2016,02,16,16,17,9.30
2016,02,16,16,18,9.30
2016,02,16,16,19,9.30
2016,02,16,16,20,9.30
2016,02,16,16,21,9.30
2016,02,16,16,22,9.30
2016,02,16,16,23,9.30
2016,02,16,16,24,9.30
2016,02,16,16,25,9.30
2016,02,16,16,26,9.30
2016,02,16,16,27,9.30
2016,02,16,16,28,9.30
2016,02,16,16,29,9.30
2016,02,16,16,30,9.30
2016,02,16,16,31,9.30
2016,02,16,16,32,9.30
2016,02,16,16,33,9.30
2016,02,16,16,34,9.30
2016,02,16,16,35,9.20
2016,02,16,16,36,9.20
2016,02,16,16,37,9.20
2016,02,16,16,38,9.20
2016,02,16,16,39,9.20
2016,02,16,16,40,9.20
2016,02,16,16,41,9.20
2016,02,16,16,42,9.20
2016,02,16,16,43,9.20
2016,02,16,16,44,9.20
2016,02,16,16,45,9.20
2016,02,16,16,46,9.20
2016,02,16,16,47,9.20
2016,02,16,16,48,9.20
2016,02,16,16,49,9.20
2016,02,16,16,50,9.20
2016,02,16,16,51,9.10
2016,02,16,16,52,9.10
2016,02,16,16,53,9.10
2016,02,16,16,54,9.10
2016,02,16,16,55,9.10
2016,02,16,16,56,9.10
2016,02,16,16,57,9.00
2016,02,16,16,58,9.00
2016,02,16,16,59,9.00
2016,02,16,17,00,9.00
2016,02,16,17,01,9.00
2016,02,16,17,02,9.00
2016,02,16,17,03,8.90
2016,02,16,17,04,8.90
2016,02,16,17,05,8.90
2016,02,16,17,06,8.90
2016,02,16,17,07,8.90
2016,02,16,17,08,8.90
2016,02,16,17,09,8.90
2016,02,16,17,10,8.80
2016,02,16,17,11,8.80
2016,02,16,17,12,8.80
2016,02,16,17,13,8.80
2016,02,16,17,14,8.80
2016,02,16,17,15,8.80
2016,02,16,17,16,8.80
2016,02,16,17,17,8.80
2016,02,16,17,18,8.80
2016,02,16,17,19,8.80
2016,02,16,17,20,8.80
2016,02,16,17,21,8.70
2016,02,16,17,22,8.70
2016,02,16,17,23,8.70
2016,02,16,17,24,8.70
2016,02,16,17,25,8.70
2016,02,16,17,26,8.70
2016,02,16,17,27,8.60
2016,02,16,17,28,8.60
2016,02,16,17,29,8.60
2016,02,16,17,30,8.60
2016,02,16,17,31,8.60
2016,02,16,17,32,8.60
2016,02,16,17,33,8.60
2016,02,16,17,34,8.60
2016,02,16,17,35,8.60
2016,02,16,17,36,8.60
2016,02,16,17,37,8.60
2016,02,16,17,38,8.60
2016,02,16,17,39,8.60
2016,02,16,17,40,8.50
2016,02,16,17,41,8.50
2016,02,16,17,42,8.50
2016,02,16,17,43,8.50
2016,02,16,17,44,8.50
2016,02,16,17,45,8.50
2016,02,16,17,46,8.50
2016,02,16,17,47,8.50
2016,02,16,17,48,8.50
2016,02,16,17,49,8.50
2016,02,16,17,50,8.40
2016,02,16,17,51,8.40
2016,02,16,17,52,8.40
2016,02,16,17,53,8.30
2016,02,16,17,54,8.30
2016,02,16,17,55,8.30
2016,02,16,17,56,8.30
2016,02,16,17,57,8.30
2016,02,16,17,58,8.30
2016,02,16,17,59,8.30